STARLINK-2278

Last updated on Sat Apr 24 2021 00:02:02 GMT+0000 (Coordinated Universal Time)

1 48026U 21024BB 21113.25001157 -.01178790 00000-0 -18939-1 0 9994 2 48026 53.0465 56.1141 0001097 73.9288 238.4852 15.55380008 1825

Satellite not in orbit

STARLINK-2278